Seattle, WA

10:27 PM PST on January 16, 2017 (GMT -0800)
Renton Municipal

Weather History for KRNT - May, 2014

Change the Weather History Date:

Monday, May 5, 2014

  Actual Average Record
Temperature  
Mean Temperature 55 °F -  
Max Temperature 61 °F 60 °F 80 °F (2013)
Min Temperature 50 °F 44 °F 41 °F (1999)
Degree Days  
Heating Degree Days 10    
Growing Degree Days 5 (Base 50)    
Moisture  
Dew Point 49 °F    
Average Humidity 86    
Maximum Humidity 97    
Minimum Humidity 57    
Precipitation  
Precipitation 0.24 in - - ()
Sea Level Pressure  
Sea Level Pressure 29.97 in    
Wind  
Wind Speed 7 mph (SSE)    
Max Wind Speed 14 mph    
Max Gust Speed -    
Visibility 9 miles    
Events Rain    
Averages and records for this station are not official NWS values.
T = Trace of Precipitation, MM = Missing Value Source: NWS Daily Summary

Daily Weather History Graph

Daily Weather History Graph

Search for Another Location

Airport or City:

Trip Planner

Search our weather history database for the weather conditions in past years. The results will help you decide how hot, cold, wet, or windy it might be!

Date:

Astronomy

May. 05, 2014 Rise Set
Actual Time 5:45 AM PDT 8:26 PM PDT
Civil Twilight 5:10 AM PDT 9:01 PM PDT
Nautical Twilight 4:26 AM PDT 9:45 PM PDT
Astronomical Twilight 3:34 AM PDT 10:38 PM PDT
Moon 11:12 AM PDT (5/5) 1:12 AM PDT (5/5)
Length of Visible Light 15h 50m
Length of Day
14h 40m
Waxing Crescent, 37% of the Moon is Illuminated
May 5
Waxing Crescent
May 6
First Quarter
May 14
Full
May 21
Last Quarter
May 28
New

Hourly Weather History & Observations

Time (PDT) Temp. Dew Point Humidity Pressure Visibility Wind Dir Wind Speed Gust Speed Precip Events Conditions
12:41 AM 51.1 °F 48.9 °F 92% 29.88 in 10.0 mi SSE 8.1 mph - 0.00 in   Overcast
12:53 AM 51.1 °F 50.0 °F 96% 29.90 in 10.0 mi SSE 6.9 mph - 0.00 in   Overcast
1:53 AM 51.1 °F 48.9 °F 92% 29.91 in 10.0 mi SSE 8.1 mph - N/A   Overcast
2:42 AM 51.1 °F 48.9 °F 92% 29.90 in 9.0 mi SSE 6.9 mph - 0.00 in Rain Light Rain
2:53 AM 51.1 °F 48.9 °F 92% 29.91 in 9.0 mi SSE 5.8 mph - 0.00 in Rain Light Rain
3:27 AM 50.0 °F 48.9 °F 96% 29.90 in 6.0 mi SSE 9.2 mph - 0.04 in Rain Light Rain
3:53 AM 50.0 °F 48.9 °F 96% 29.92 in 5.0 mi SE 5.8 mph - 0.08 in Rain Light Rain
4:53 AM 50.0 °F 48.9 °F 96% 29.93 in 8.0 mi SSE 5.8 mph - 0.04 in Rain Light Rain
5:22 AM 50.0 °F 48.9 °F 96% 29.91 in 7.0 mi SE 4.6 mph - 0.01 in Rain Light Rain
5:29 AM 50.0 °F 48.9 °F 96% 29.91 in 8.0 mi Variable 4.6 mph - 0.01 in Rain Light Rain
5:40 AM 50.0 °F 48.9 °F 96% 29.92 in 10.0 mi SE 5.8 mph - 0.01 in Rain Light Rain
5:53 AM 50.0 °F 48.9 °F 96% 29.94 in 10.0 mi SE 3.5 mph - 0.01 in Rain Light Rain
6:18 AM 50.0 °F 48.9 °F 96% 29.93 in 9.0 mi SE 5.8 mph - 0.01 in Rain Light Rain
6:35 AM 50.0 °F 48.9 °F 96% 29.93 in 5.0 mi SSE 5.8 mph - 0.02 in Rain Light Rain
6:53 AM 50.0 °F 48.9 °F 96% 29.95 in 7.0 mi SSE 4.6 mph - 0.03 in Rain Light Rain
7:29 AM - 39.2 °F N/A% 29.95 in - North - - N/A   Unknown
7:53 AM 50.0 °F 48.9 °F 96% 29.97 in 7.0 mi ESE 3.5 mph - 0.04 in Rain Light Rain
8:53 AM 51.1 °F 50.0 °F 96% 29.98 in 8.0 mi SE 4.6 mph - 0.01 in Rain Light Rain
9:53 AM 52.0 °F 48.9 °F 89% 29.99 in 7.0 mi SSE 6.9 mph - 0.02 in Rain Light Rain
10:53 AM 53.6 °F 50.0 °F 88% 29.99 in 10.0 mi South 8.1 mph - N/A   Overcast
11:00 AM 54.0 °F 50.0 °F 86% 29.99 in 10.0 mi South 8.1 mph - N/A   Overcast
11:53 AM 55.9 °F 50.0 °F 80% 30.01 in 10.0 mi SSE 9.2 mph - N/A   Overcast
12:53 PM 59.0 °F 48.0 °F 67% 30.00 in 10.0 mi South 8.1 mph - N/A   Overcast
1:53 PM 59.0 °F 46.9 °F 64% 30.01 in 10.0 mi SSW 12.7 mph - N/A   Overcast
2:53 PM 60.1 °F 45.0 °F 57% 30.01 in 10.0 mi SSW 13.8 mph - N/A   Scattered Clouds
3:53 PM 57.9 °F 46.9 °F 67% 30.01 in 10.0 mi WSW 8.1 mph - N/A   Overcast
4:53 PM 57.9 °F 48.0 °F 70% 30.01 in 10.0 mi SSW 3.5 mph - 0.01 in   Overcast
5:36 PM 59.0 °F 48.0 °F 67% 29.99 in 10.0 mi WSW 6.9 mph - N/A   Mostly Cloudy
5:53 PM 59.0 °F 48.9 °F 69% 30.01 in 10.0 mi Variable 6.9 mph - N/A   Mostly Cloudy
6:53 PM 57.9 °F 50.0 °F 75% 30.01 in 10.0 mi SW 5.8 mph - N/A   Mostly Cloudy
7:53 PM 57.0 °F 48.9 °F 74% 30.02 in 10.0 mi South 4.6 mph - N/A   Partly Cloudy
8:53 PM 55.4 °F 51.8 °F 88% 30.02 in 10.0 mi Calm Calm - N/A   Mostly Cloudy
9:53 PM 54.0 °F 51.1 °F 90% 30.05 in 10.0 mi ESE 3.5 mph - N/A   Overcast
10:53 PM 52.0 °F 50.0 °F 93% 30.05 in 10.0 mi Calm Calm - N/A   Partly Cloudy
11:07 PM 53.1 °F 51.1 °F 93% 30.03 in 10.0 mi SSE 3.5 mph - N/A   Mostly Cloudy
11:35 PM 52.0 °F 51.1 °F 97% 30.03 in 10.0 mi ESE 3.5 mph - N/A   Mostly Cloudy
11:53 PM 54.0 °F 48.9 °F 83% 30.05 in 10.0 mi South 8.1 mph - N/A   Overcast